[[{"header":{"parameterUnit":"m.s-1","parameterCategory":1,"la1":30.2991,"la2":30.254,"lo1":-89.0895,"lo2":-89.0444,"dy":0.0017,"dx":0.0017,"nx":28,"ny":28,"refTime":"2024-06-16T03:00:00:Z","depth":0,"parameterNumber":2,"parameterNumberName":"U-component_of_WINDS"},"data":[0,0,0,0,0,0,0,0,0,0,0,0,0,0,0,0,0,0,0,0,0,0,0,0,0,0,0,0,0,0,0,0,0,0,0,0,0,0,0,0,0,0,0,0,0,0,0,0,0,0,0,0,0,0,0,0,0,0,-6.3424,-6.3424,0,-6.3468,-6.3468,-6.3469,-6.3402,-6.34,-6.3397,-6.3395,-6.3436,-6.344,-6.3443,0,0,0,0,0,0,0,0,0,0,0,0,0,-6.3278,-6.3281,-6.3424,-6.3424,-6.3425,-6.3468,-6.3468,-6.3469,-6.3402,-6.34,-6.3397,-6.3394,-6.3435,-6.3439,-6.3443,0,0,0,0,0,0,0,0,0,0,0,0,0,-6.3334,-6.3282,-6.3424,-6.3397,-6.3395,-6.3468,-6.3468,-6.3469,-6.3403,-6.34,-6.3396,-6.3393,-6.3434,-6.3439,-6.3444,-6.3543,0,0,-6.3459,-6.3461,0,0,0,0,0,0,0,0,-6.3331,-6.3339,-6.34,-6.3399,-6.3397,-6.3426,-6.3432,-6.3494,-6.3404,-6.34,-6.3395,-6.3391,-6.3436,-6.344,-6.3456,-6.3545,-6.3547,-6.3459,-6.3462,-6.3464,-6.3465,0,0,0,0,0,0,0,-6.3327,-6.3337,-6.3441,-6.3401,-6.3399,-6.3381,-6.3386,-6.3443,-6.3436,-6.34,-6.3395,-6.3402,-6.3434,-6.3451,-6.3456,-6.3548,-6.3459,-6.3463,-6.3466,-6.3468,-6.372,-6.3724,0,0,0,0,0,0,-6.3327,-6.3334,-6.344,-6.3442,-6.3355,-6.3387,-6.3391,-6.342,-6.3436,-6.3435,-6.3404,-6.3398,-6.3445,-6.3451,-6.3457,-6.3574,-6.3464,-6.3469,-6.3471,-6.3716,-6.3721,-6.3725,0,0,0,0,0,0,-6.3324,-6.3337,-6.3438,-6.3387,-6.3398,-6.3393,-6.3426,-6.3423,-6.344,-6.3439,-6.3437,-6.3424,-6.3442,-6.3451,-6.3523,-6.3574,-6.3471,-6.3475,-6.3712,-6.3718,-6.3723,-6.3808,0,0,0,0,0,0,-6.332,-6.3336,-6.3375,-6.3388,-6.3402,-6.3503,-6.3429,-6.3426,-6.3449,-6.3441,-6.3457,-6.3456,-6.344,-6.3516,-6.3527,-6.3579,-6.3479,-6.3707,-6.3715,-6.3721,-6.3801,-6.3816,-6.3829,0,0,0,0,0,-6.3315,-6.3396,-6.3377,-6.339,-6.345,-6.3506,-6.3514,-6.3495,-6.3454,-6.3491,-6.3491,-6.3455,-6.3568,-6.3524,-6.3536,-6.359,-6.3704,-6.3712,-6.3721,-6.3794,-6.3813,-6.3829,0,0,0,0,0,0,-6.3387,-6.3397,-6.3376,-6.3464,-6.3485,-6.3495,-6.3542,-6.3516,-6.3547,-6.3539,-6.3513,-6.3517,-6.3594,-6.36,-6.355,-6.3687,-6.3629,-6.364,-6.368,-6.3698,-6.3712,-6.3708,-6.3483,0,0,0,0,0,-6.3414,-6.346,-6.3466,-6.3543,-6.3555,-6.3547,-6.3571,-6.3555,-6.3575,-6.3583,-6.3588,-6.3607,-6.3647,-6.3673,-6.371,-6.3803,-6.3804,-6.3846,-6.386,-6.3872,-6.3881,-6.3929,-6.3948,-6.3753,-6.3753,-6.3753,0,0,-6.3468,-6.3479,-6.351,-6.3558,-6.3572,-6.3619,-6.3555,-6.3608,-6.3642,-6.3591,-6.3658,-6.3663,-6.3683,-6.3766,-6.3803,-6.3773,-6.3936,-6.3883,-6.3892,-6.3895,-6.394,-6.3958,-6.3975,-6.3759,-6.3758,-6.3757,0,0,-6.359,-6.3605,-6.367,-6.3686,-6.3709,-6.3704,-6.372,-6.3734,-6.3736,-6.3804,-6.3766,-6.3807,-6.3876,-6.3891,-6.3908,-6.4039,-6.4007,-6.4052,-6.4125,-6.4173,-6.4188,-6.4201,-6.4246,-6.4263,-6.4062,-6.4062,-6.4062,0,-6.3654,-6.3725,-6.3707,-6.3762,-6.3784,-6.3742,-6.3807,-6.3824,-6.3857,-6.3872,-6.384,-6.3925,-6.3936,-6.4021,-6.4053,-6.4069,-6.4085,-6.4048,-6.4188,-6.4201,-6.4213,-6.4255,-6.4272,-6.4067,-6.4067,-6.4066,-6.4066,0,-6.3802,-6.3852,-6.3902,-6.3936,-6.3964,-6.4024,-6.4014,-6.4044,-6.4027,-6.4024,-6.4094,-6.4106,-6.4144,-6.4164,-6.4146,-6.4246,-6.4227,-6.4192,-6.4132,-6.4237,-6.4276,-6.4292,-6.4075,-6.4073,-6.4071,-6.407,0,0,-6.3967,-6.3993,-6.4011,-6.4026,-6.405,-6.4087,-6.4146,-6.4184,-6.4209,-6.4235,-6.4281,-6.4342,-6.431,-6.4329,-6.4314,-6.4356,-6.4456,-6.4315,-6.4315,-6.4339,-6.4565,-6.459,-6.4609,-6.4437,-6.444,-6.4442,-6.4563,0,-6.4088,-6.419,-6.4176,-6.4273,-6.4318,-6.428,-6.433,-6.4349,-6.435,-6.4387,-6.4386,-6.4429,-6.4384,-6.4395,-6.4436,-6.4436,-6.4501,-6.4427,-6.4478,-6.448,-6.4471,-6.463,-6.4656,-6.4769,-6.4578,-6.4581,-6.4583,0,-6.4242,-6.4274,-6.4376,-6.4392,-6.441,-6.4456,-6.449,-6.4527,-6.4548,-6.4545,-6.4568,-6.4545,-6.4602,-6.4544,-6.4622,-6.4572,-6.4592,-6.4596,-6.46,-6.4601,-6.4535,-6.4633,-6.4804,-6.482,-6.4607,-6.4605,-6.4603,0,-6.435,-6.4419,-6.4488,-6.4503,-6.4524,-6.4557,-6.4567,-6.4585,-6.4609,-6.4639,-6.4654,-6.469,-6.4709,-6.4737,-6.4724,-6.4683,-6.4804,-6.4744,-6.4801,-6.4801,-6.4825,-6.4823,-6.5,-6.4843,-6.4843,-6.4843,-6.4842,0,-6.4484,-6.4547,-6.4537,-6.4579,-6.4649,-6.4633,-6.4701,-6.4707,-6.4723,-6.4765,-6.4735,-6.4775,-6.4757,-6.4796,-6.4787,-6.4851,-6.4861,-6.4858,-6.4855,-6.486,-6.486,-6.487,-6.4861,-6.4847,-6.4846,-6.4845,-6.4845,0,-6.4615,-6.4611,-6.4684,-6.4699,-6.4705,-6.4755,-6.4767,-6.4806,-6.4805,-6.4859,-6.487,-6.4868,-6.4912,-6.4903,-6.4951,-6.4945,-6.5025,-6.5013,-6.5018,-6.5014,-6.507,-6.5064,-6.5257,-6.5281,-6.5112,-6.5114,-6.5115,0,-6.4699,-6.4747,-6.4768,-6.4795,-6.4808,-6.4852,-6.4876,-6.4862,-6.4889,-6.4917,-6.4953,-6.4995,-6.5027,-6.5099,-6.51,-6.5137,-6.5123,-6.5189,-6.5128,-6.5132,-6.5121,-6.5118,-6.5121,-6.52,-6.5201,-6.5203,-6.5204,0,-6.4849,-6.4845,-6.4883,-6.492,-6.4951,-6.498,-6.5005,-6.5028,-6.5016,-6.5048,-6.5093,-6.5119,-6.5168,-6.5209,-6.5244,-6.5253,-6.5226,-6.5224,-6.5238,-6.5242,-6.5242,-6.5241,-6.5048,-6.5219,-6.5217,-6.5216,-6.5215,-6.5215,-6.4958,-6.4998,-6.5019,-6.5062,-6.5081,-6.5105,-6.5143,-6.5147,-6.5185,-6.5225,-6.5215,-6.5265,-6.5285,-6.5329,-6.5342,-6.5381,-6.5356,-6.5378,-6.5383,-6.5388,-6.5393,-6.5239,-6.5388,-6.5387,-6.5387,-6.5386,-6.5386,0,-6.5104,-6.5116,-6.5156,-6.5193,-6.5227,-6.5202,-6.5229,-6.5258,-6.5303,-6.5325,-6.5358,-6.541,-6.545,-6.5456,-6.5493,-6.5523,-6.5512,-6.5533,-6.5529,-6.5531,-6.5414,-6.5397,-6.5542,-6.5541,-6.5541,-6.5541,-6.5541,-6.5541,-6.5183,-6.525,-6.5249,-6.5325,-6.5336,-6.5387,-6.5404,-6.5426,-6.5443,-6.5503,-6.5536,-6.5541,-6.5555,-6.5594,-6.5629,-6.563,-6.5644,-6.567,-6.5666,-6.5555,-6.554,-6.5525,-6.5508,-6.5674,-6.5674,-6.5779,-6.578,-6.5781]},{"header":{"parameterUnit":"m.s-1","parameterCategory":1,"la1":30.2991,"la2":30.254,"lo1":-89.0895,"lo2":-89.0444,"dy":0.0017,"dx":0.0017,"nx":28,"ny":28,"refTime":"2024-06-16T03:00:00:Z","depth":0,"parameterNumber":3,"parameterNumberName":"V-component_of_WINDS"},"data":[0,0,0,0,0,0,0,0,0,0,0,0,0,0,0,0,0,0,0,0,0,0,0,0,0,0,0,0,0,0,0,0,0,0,0,0,0,0,0,0,0,0,0,0,0,0,0,0,0,0,0,0,0,0,0,0,0,0,2.4213,2.4214,0,2.4279,2.4279,2.428,2.4325,2.4325,2.4325,2.4326,2.4388,2.4389,2.4391,0,0,0,0,0,0,0,0,0,0,0,0,0,2.4125,2.4126,2.4213,2.4214,2.4215,2.4279,2.4279,2.428,2.4325,2.4325,2.4326,2.4326,2.4387,2.4389,2.4391,0,0,0,0,0,0,0,0,0,0,0,0,0,2.4174,2.4126,2.4213,2.4245,2.4249,2.4278,2.4279,2.4281,2.4325,2.4325,2.4326,2.4326,2.4387,2.4389,2.4391,2.4393,0,0,2.4397,2.4398,0,0,0,0,0,0,0,0,2.4171,2.4177,2.424,2.4243,2.4247,2.4294,2.4271,2.4318,2.4325,2.4296,2.4326,2.4326,2.4356,2.4361,2.4372,2.4396,2.4398,2.4397,2.4398,2.4399,2.44,0,0,0,0,0,0,0,2.4167,2.4174,2.4239,2.424,2.4245,2.4255,2.4263,2.428,2.4322,2.4298,2.4302,2.4309,2.4358,2.4369,2.4373,2.4399,2.4397,2.4399,2.44,2.4401,2.443,2.443,0,0,0,0,0,0,2.4159,2.4171,2.4237,2.4241,2.4209,2.4256,2.4265,2.4278,2.4322,2.4329,2.4308,2.4311,2.4366,2.4371,2.4376,2.4382,2.4399,2.4401,2.4402,2.4431,2.443,2.443,0,0,0,0,0,0,2.4157,2.4165,2.4234,2.4207,2.4217,2.4257,2.4272,2.4279,2.4291,2.433,2.4337,2.4313,2.4366,2.4373,2.4389,2.4385,2.4402,2.4404,2.4431,2.4431,2.443,2.4394,0,0,0,0,0,0,2.4155,2.4164,2.4166,2.4207,2.4218,2.4247,2.4272,2.428,2.4295,2.4299,2.4336,2.4342,2.4367,2.4386,2.4391,2.4388,2.4405,2.4432,2.4431,2.443,2.4396,2.4393,2.439,0,0,0,0,0,2.4151,2.4151,2.4165,2.4173,2.4221,2.4247,2.4253,2.4284,2.4294,2.4296,2.4321,2.4341,2.4385,2.4387,2.4393,2.4391,2.4432,2.4431,2.443,2.4398,2.4393,2.439,0,0,0,0,0,0,2.4106,2.4157,2.4173,2.4187,2.4213,2.4255,2.4258,2.4278,2.43,2.4302,2.4337,2.4345,2.4358,2.4376,2.4378,2.4396,2.4411,2.4411,2.4384,2.438,2.4377,2.4372,2.4407,0,0,0,0,0,2.4099,2.4117,2.416,2.4167,2.418,2.4217,2.4229,2.425,2.4277,2.4288,2.4314,2.4339,2.4358,2.437,2.439,2.4399,2.4408,2.4401,2.4397,2.4395,2.4394,2.4402,2.4399,2.4427,2.4427,2.4427,0,0,2.4082,2.4112,2.412,2.4159,2.4182,2.4199,2.4225,2.4242,2.4255,2.429,2.4308,2.4328,2.4358,2.4371,2.4378,2.4386,2.4389,2.4393,2.4391,2.4392,2.44,2.4398,2.4395,2.4426,2.4426,2.4426,0,0,2.406,2.4084,2.4095,2.4117,2.4152,2.4176,2.4179,2.4218,2.4234,2.4253,2.428,2.4295,2.4328,2.4348,2.4363,2.4351,2.4371,2.4357,2.434,2.4347,2.4344,2.4343,2.4339,2.4338,2.4356,2.4356,2.4356,0,2.4034,2.4062,2.4097,2.4113,2.4129,2.4164,2.4175,2.4195,2.4233,2.4243,2.4252,2.4295,2.4318,2.4337,2.4334,2.4345,2.4349,2.4353,2.4342,2.4341,2.434,2.4337,2.4335,2.4354,2.4355,2.4355,2.4355,0,2.403,2.4049,2.4053,2.4092,2.4108,2.4121,2.4157,2.417,2.419,2.4214,2.4233,2.4261,2.4289,2.4295,2.4313,2.4317,2.4321,2.4336,2.4351,2.4335,2.4333,2.4332,2.4352,2.4353,2.4353,2.4354,0,0,2.398,2.404,2.4041,2.406,2.4101,2.4116,2.413,2.4159,2.417,2.4195,2.4208,2.4236,2.4251,2.4267,2.4289,2.4295,2.4286,2.4309,2.4311,2.4304,2.4292,2.4281,2.4279,2.4299,2.4299,2.4299,2.429,0,2.3965,2.3996,2.4028,2.4046,2.4065,2.4099,2.4112,2.4139,2.4161,2.418,2.4204,2.4224,2.4241,2.4252,2.4259,2.4285,2.4283,2.4286,2.4311,2.4311,2.4303,2.4278,2.4266,2.4257,2.4289,2.4289,2.4289,0,2.3952,2.3978,2.3999,2.4041,2.405,2.4061,2.4091,2.4108,2.4139,2.4155,2.4175,2.4199,2.4215,2.4229,2.4253,2.4254,2.4266,2.4281,2.4281,2.4284,2.4299,2.4281,2.4254,2.4253,2.4288,2.4288,2.4288,0,2.3915,2.3955,2.3974,2.3989,2.4037,2.4045,2.4065,2.4096,2.4112,2.4137,2.4148,2.4174,2.4188,2.4208,2.4238,2.4245,2.4259,2.4275,2.4273,2.4272,2.4274,2.4273,2.4248,2.4281,2.4281,2.4281,2.4281,0,2.3895,2.3907,2.3958,2.3969,2.3984,2.4021,2.4033,2.4056,2.4084,2.41,2.4131,2.4145,2.4184,2.4202,2.4226,2.4243,2.4248,2.4262,2.4268,2.4259,2.4258,2.4268,2.4269,2.428,2.4281,2.4281,2.4281,0,2.3856,2.3891,2.3914,2.3959,2.3971,2.3979,2.4017,2.4029,2.4055,2.4074,2.4081,2.412,2.4144,2.4176,2.4209,2.4225,2.4238,2.4248,2.4229,2.4232,2.4228,2.4229,2.4209,2.4209,2.4241,2.424,2.424,0,2.3842,2.3852,2.3899,2.3913,2.3933,2.3954,2.3971,2.4008,2.4024,2.4061,2.4069,2.4095,2.4118,2.4154,2.4185,2.421,2.4221,2.4212,2.4225,2.4216,2.4222,2.4221,2.4222,2.4209,2.4209,2.4208,2.4208,0,2.3812,2.383,2.3854,2.3884,2.3904,2.3929,2.3956,2.3965,2.4007,2.4024,2.405,2.4068,2.4103,2.4128,2.4159,2.4178,2.42,2.4204,2.4205,2.4196,2.4185,2.4192,2.4221,2.4204,2.4204,2.4205,2.4205,2.4205,2.3786,2.3797,2.3833,2.3859,2.3883,2.3908,2.3922,2.395,2.3973,2.4005,2.4025,2.405,2.4082,2.4125,2.4144,2.4163,2.4172,2.4173,2.4173,2.4173,2.4171,2.4182,2.4169,2.4169,2.4169,2.4169,2.4169,0,2.3759,2.3784,2.3808,2.3845,2.3866,2.3887,2.3917,2.3933,2.3955,2.3984,2.4007,2.4036,2.4062,2.4096,2.4124,2.4133,2.4143,2.4139,2.4139,2.4143,2.4161,2.4158,2.413,2.413,2.413,2.413,2.413,2.413,2.3747,2.3768,2.379,2.3823,2.3848,2.3874,2.389,2.3913,2.3936,2.3969,2.3991,2.4014,2.4044,2.4075,2.4099,2.4109,2.4117,2.411,2.4122,2.4138,2.4142,2.4145,2.4142,2.4111,2.4111,2.4103,2.4103,2.4103]}]]